Погода в Кумбе

Камерун     4°38′00″N   9°26′50″E
темп.,
°C
ветер,
м/с
пор.,
м/с
влажн.,
%
обл.,
%
осадки,
мм/ч
давл.,
гПа
погр.,
м
8 марта, пн
пн801:00+23с119691 2.1 101126
04:00+22ссв0197100 0.0 100923
07:00+23ссв129468 0.1 101141
10:00+29зюз126649 0.6 1012913
13:00+32зюз225049 0.8 10091554
16:00+31зюз345654 2.1 10061010
19:00+25ю138876 6.6 1008122
22:00+23сз01938 0.5 101131
9 марта, вт
вт901:00+22ссз11944 0.5 101023
04:00+22ссз11950 0.0 100930
07:00+22с11930 0.0 101035
10:00+30ююз12646 0.1 1011931
13:00+32ююз225149 0.2 10081376
16:00+28з356875 5.9 1006453
19:00+24зюз259158 8.1 1008208
22:00+23ссз00950 0.4 101024
10 марта, ср
ср1001:00+22сз11950 0.4 100947
04:00+22с11960 0.0 100825
07:00+22ссв119426 0.1 101038
10:00+29ю126722 0.2 1012861
13:00+31ююз225750 0.4 10091201
16:00+28зюз247382 4.1 1006754
19:00+24юз258991 10.8 1008210
22:00+23з019458 0.3 101060
11 марта, чт
чт1101:00+23сз119479 1.1 100945
04:00+22с0196100 0.2 100923
07:00+22ссв119594 0.2 101045
10:00+30юз126349 0.0 1011911
13:00+30ююз235865 0.1 10081267
16:00+30зюз356137 2.3 10061194
19:00+25юз278242 4.4 1007427
22:00+23ю0191100 0.9 1011119
12 марта, пт
пт1201:00+23сз1292100 1.2 100993
04:00+23сз1291100 0.0 100863
07:00+23з0191100 0.9 100943
10:00+27юз0273100 0.1 1011643
13:00+32з235499 0.2 10081310
16:00+30зюз346497 0.3 1006983
19:00+25зюз378557 1.5 1007339
22:00+23з269374 7.2 1010253